Location: La Bilong�re
(48.1297°N, 1.4584°W)
Time: 03:46:37
(UTC+00:00)

Cosmos 2278 Rocket - Pass Details

Date: 03 March 2021
Orbit: 841 x 845 km, 71.0° (Epoch: 17 April)

Event Time Altitude Azimuth Distance (km) Brightness Sun altitude
Rises 22:07:06 0° 322° (NW) 3,414 6.2 -40.0°
Reaches altitude 10° 22:10:00 10° 309° (NW) 2,473 5.3 -40.3°
Enters shadow 22:12:21 19° 288° (WNW) 1,893 4.4 -40.6°
